Regional Weather Roundup
Issued by NWS Burlington, VT

Home | Current Version | Previous Version | Text Only | Print | Product List | Glossary On
Versions: 1 2 3 4 5 6 7 8 9 10 11 12 13 14 15 16 17 18 19 20 21 22 23 24 25 26 27 28 29 30 31 32 33 34 35 36 37 38 39 40 41 42 43 44 45 46 47 48 49 50
000
ASUS41 KBTV 222030
RWRBTV
VERMONT REGIONAL WEATHER ROUNDUP
NATIONAL WEATHER SERVICE BURLINGTON VT
400 PM EDT TUE JUL 22 2014

NOTE: "FAIR" INDICATES FEW OR NO CLOUDS BELOW 12,000 FEET WITH NO
SIGNIFICANT WEATHER AND/OR OBSTRUCTIONS TO VISIBILITY.

* THESE REPORTS ARE NOT UNDER NWS QUALITY CONTROL AND/OR DO NOT
  REPORT WEATHER SUCH AS PRECIPITATION AND FOG.

VTZ001>019-222100-
_____VERMONT_____


CITY           SKY/WX    TMP DP  RH WIND       PRES   REMARKS
BURLINGTON     MOCLDY    88  63  43 S6        30.00F
MONTPELIER     CLEAR     84  63  49 NW3       30.09S
MORRISVILLE    PTCLDY    86  62  44 VRB5      30.04F
ST. JOHNSBURY*   N/A     84  62  47 MISG      30.00F
LYNDONVILLE*   FAIR      83  59  43 W7        30.05F
MIDDLEBURY*    FAIR      88  64  45 S8        30.01F
RUTLAND*       MOCLDY    84  66  54 W8        30.04F
SPRINGFIELD    PTCLDY    87  63  44 SW8       30.04F
HIGHGATE*      FAIR      86  64  48 W3        29.99F
NEWPORT*       FAIR     N/A N/A N/A W7        30.03F
BENNINGTON     MOCLDY    85  67  54 SW3       30.06F
GALLUP MILLS*    N/A     66 N/A N/A MISG        N/A
UNION VILLAGE*   N/A     88 N/A N/A MISG        N/A
MT. MANSFIELD*   N/A     68 N/A N/A W6          N/A

_____LAKE CHAMPLAIN_____


CITY           SKY/WX    TMP DP  RH WIND       PRES   REMARKS
BURTON ISLAND*   N/A     86  68  54 W1          N/A
COLCHESTER RF*   N/A     82  63  51 S10         N/A
DIAMOND ISL*     N/A     84  64  51 NW3         N/A

$$

NYZ007-026>031-035-052-083-222100-
_____NORTHERN NEW YORK_____


CITY           SKY/WX    TMP DP  RH WIND       PRES   REMARKS
PLATTSBURGH    PTCLDY    84  66  54 SE9       29.99F
SARANAC LAKE   PTCLDY    81  57  43 SW9       30.06F
MASSENA        PTCLDY    84  66  54 SW8       29.99F
OGDENSBURG*    CLEAR     86  64  48 SW10      29.98F
POTSDAM*       CLEAR     84  68  58 W8        30.00F
PARISHVILLE*     N/A     81 N/A N/A W10         N/A
WATERTOWN      PTCLDY    83  62  49 W12       30.02F
FT DRUM        PTCLDY    85  55  35 SW9       30.02F
ALBANY         PTCLDY    86  68  54 S8        30.03F
GLENS FALLS    CLEAR     87  69  54 S10       30.01F HX  91

$$
NHZ002-005-011-222100-
_____NEW HAMPSHIRE_____


CITY           SKY/WX    TMP DP  RH WIND       PRES   REMARKS
LEBANON        PTCLDY    88  63  43 VRB7      30.02F
KEENE          PTCLDY    84  63  48 SW10      30.04F
MT WASHINGTON  MOCLDY    59  52  77 W15G22      N/A
PLYMOUTH       FAIR      87  64  45 CALM      30.01F
WHITEFIELD     CLEAR     85  63  47 W7        30.04F

$$

_____REGIONAL QUEBEC LOCATIONS_____


CITY           SKY/WX    TMP DP  RH WIND       PRES   REMARKS
MONTREAL       MOCLDY    84  66  54 SW13      29.97F
QUEBEC CITY    PTCLDY    88  63  42 SW21G26   29.92F
SHERBROOKE     PTCLDY    84  63  48 SW12G17   30.00F

_____REGIONAL ONTARIO LOCATIONS_____


CITY           SKY/WX    TMP DP  RH WIND       PRES   REMARKS
OTTAWA         MOCLDY    84  66  54 S10       29.96F

______KEY______
VSB  - VISIBILITY IN MILES
WCI  - WIND CHILL INDEX
HX   - HEAT INDEX
$$
NNNN



USA.gov is the U.S. government's official web portal to all federal, state and local government web resources and services.